| time (UTC) | temp C | wind direction | speed KPH | gust KPH | rain 1hr cm | rain 24hr cm | rain mn cm | humidity % | barometer mb |
| 20260506201054 | 32 | 270 | 9.7 | 19.3 | 0.00 | 0.00 | 0.00 | 43 | 1012.3 |
| 20260506200556 | 32 | 248 | 11.3 | 27.4 | 0.00 | 0.00 | 0.00 | 44 | 1012.4 |
| 20260506200053 | 32 | 234 | 11.3 | 27.4 | 0.00 | 0.00 | 0.00 | 43 | 1012.3 |
| 20260506195552 | 32 | 257 | 4.8 | 19.3 | 0.00 | 0.00 | 0.00 | 42 | 1012.4 |
| 20260506195051 | 32 | 231 | 12.9 | 19.3 | 0.00 | 0.00 | 0.00 | 42 | 1012.6 |
| 20260506194551 | 32 | 252 | 14.5 | 22.5 | 0.00 | 0.00 | 0.00 | 41 | 1012.7 |
| 20260506194051 | 32 | 251 | 9.7 | 22.5 | 0.00 | 0.00 | 0.00 | 43 | 1012.7 |
| 20260506193553 | 32 | 276 | 4.8 | 22.5 | 0.00 | 0.00 | 0.00 | 45 | 1012.7 |
| 20260506193049 | 32 | 268 | 12.9 | 25.7 | 0.00 | 0.00 | 0.00 | 45 | 1012.7 |
| 20260506192548 | 32 | 259 | 8.0 | 25.7 | 0.00 | 0.00 | 0.00 | 45 | 1012.8 |
| 20260506192048 | 32 | 261 | 12.9 | 20.9 | 0.00 | 0.00 | 0.00 | 45 | 1013.0 |
| 20260506191548 | 31 | 313 | 3.2 | 16.1 | 0.00 | 0.00 | 0.00 | 47 | 1012.9 |
| 20260506191046 | 32 | 223 | 6.4 | 24.1 | 0.00 | 0.00 | 0.00 | 47 | 1013.1 |
| 20260506190546 | 32 | 271 | 12.9 | 24.1 | 0.00 | 0.00 | 0.00 | 45 | 1013.2 |
| 20260506190046 | 32 | 252 | 8.0 | 24.1 | 0.00 | 0.00 | 0.00 | 44 | 1013.3 |
| 20260506185543 | 32 | 261 | 12.9 | 24.1 | 0.00 | 0.00 | 0.00 | 45 | 1013.3 |
| 20260506185042 | 31 | 248 | 4.8 | 20.9 | 0.00 | 0.00 | 0.00 | 47 | 1013.4 |
| 20260506184548 | 32 | 273 | 9.7 | 24.1 | 0.00 | 0.00 | 0.00 | 46 | 1013.4 |
| 20260506184042 | 31 | 259 | 9.7 | 19.3 | 0.00 | 0.00 | 0.00 | 45 | 1013.4 |
| 20260506183543 | 31 | 268 | 9.7 | 17.7 | 0.00 | 0.00 | 0.00 | 46 | 1013.4 |
| 20260506183040 | 31 | 246 | 3.2 | 20.9 | 0.00 | 0.00 | 0.00 | 48 | 1013.5 |
| 20260506182540 | 31 | 261 | 8.0 | 20.9 | 0.00 | 0.00 | 0.00 | 47 | 1013.6 |
| 20260506182040 | 31 | 253 | 6.4 | 19.3 | 0.00 | 0.00 | 0.00 | 47 | 1013.7 |
| 20260506181539 | 31 | 273 | 9.7 | 20.9 | 0.00 | 0.00 | 0.00 | 47 | 1013.8 |
| 20260506181039 | 31 | 260 | 9.7 | 19.3 | 0.00 | 0.00 | 0.00 | 46 | 1013.9 |
| 20260506180539 | 31 | 250 | 4.8 | 22.5 | 0.00 | 0.00 | 0.00 | 49 | 1013.9 |
| 20260506180040 | 31 | 254 | 8.0 | 22.5 | 0.00 | 0.00 | 0.00 | 49 | 1014.0 |
| 20260506175539 | 31 | 256 | 6.4 | 16.1 | 0.00 | 0.00 | 0.00 | 49 | 1014.0 |
| 20260506175038 | 31 | 274 | 3.2 | 19.3 | 0.00 | 0.00 | 0.00 | 51 | 1014.0 |
| 20260506174538 | 31 | 257 | 11.3 | 19.3 | 0.00 | 0.00 | 0.00 | 51 | 1014.1 |
| 20260506174038 | 31 | 257 | 11.3 | 19.3 | 0.00 | 0.00 | 0.00 | 46 | 1014.3 |
| 20260506173538 | 31 | 288 | 0.0 | 17.7 | 0.00 | 0.00 | 0.00 | 51 | 1014.3 |
| 20260506173057 | 31 | 298 | 9.7 | 19.3 | 0.00 | 0.00 | 0.00 | 51 | 1014.3 |
| 20260506172535 | 31 | 232 | 9.7 | 16.1 | 0.00 | 0.00 | 0.00 | 50 | 1014.4 |
| 20260506172034 | 30 | 225 | 6.4 | 24.1 | 0.00 | 0.00 | 0.00 | 52 | 1014.5 |
| 20260506171535 | 30 | 302 | 4.8 | 19.3 | 0.00 | 0.00 | 0.00 | 51 | 1014.5 |
| 20260506171036 | 31 | 251 | 6.4 | 19.3 | 0.00 | 0.00 | 0.00 | 52 | 1014.6 |
| 20260506170532 | 30 | 272 | 3.2 | 22.5 | 0.00 | 0.00 | 0.00 | 53 | 1014.7 |
| 20260506170034 | 30 | 298 | 14.5 | 22.5 | 0.00 | 0.00 | 0.00 | 52 | 1014.8 |
| 20260506165531 | 30 | 147 | 3.2 | 16.1 | 0.00 | 0.00 | 0.00 | 54 | 1014.8 |
| 20260506165031 | 30 | 256 | 6.4 | 19.3 | 0.00 | 0.00 | 0.00 | 53 | 1014.9 |
| 20260506164533 | 30 | 256 | 11.3 | 19.3 | 0.00 | 0.00 | 0.00 | 53 | 1014.8 |
| 20260506164029 | 30 | 249 | 8.0 | 14.5 | 0.00 | 0.00 | 0.00 | 55 | 1014.9 |
| 20260506163532 | 30 | 238 | 8.0 | 19.3 | 0.00 | 0.00 | 0.00 | 55 | 1015.0 |
| 20260506163031 | 29 | 274 | 11.3 | 19.3 | 0.00 | 0.00 | 0.00 | 55 | 1015.0 |
| 20260506162527 | 29 | 288 | 9.7 | 19.3 | 0.00 | 0.00 | 0.00 | 55 | 1015.1 |
| 20260506162030 | 29 | 238 | 9.7 | 22.5 | 0.00 | 0.00 | 0.00 | 57 | 1015.1 |
| 20260506161527 | 29 | 271 | 11.3 | 22.5 | 0.00 | 0.00 | 0.00 | 56 | 1015.2 |
| 20260506161024 | 28 | 236 | 16.1 | 22.5 | 0.00 | 0.00 | 0.00 | 55 | 1015.3 |
| 20260506160523 | 28 | 247 | 11.3 | 24.1 | 0.00 | 0.00 | 0.00 | 56 | 1015.3 |
| 20260506160022 | 28 | 236 | 9.7 | 24.1 | 0.00 | 0.00 | 0.00 | 57 | 1015.3 |
| 20260506155521 | 28 | 245 | 6.4 | 17.7 | 0.00 | 0.00 | 0.00 | 56 | 1015.3 |
| 20260506155020 | 28 | 257 | 8.0 | 19.3 | 0.00 | 0.00 | 0.00 | 58 | 1015.3 |
| 20260506154520 | 28 | 240 | 12.9 | 19.3 | 0.00 | 0.00 | 0.00 | 59 | 1015.3 |
| 20260506154020 | 28 | 242 | 8.0 | 20.9 | 0.00 | 0.00 | 0.00 | 59 | 1015.3 |
| 20260506153520 | 27 | 240 | 6.4 | 22.5 | 0.00 | 0.00 | 0.00 | 59 | 1015.2 |
| 20260506153017 | 27 | 251 | 8.0 | 22.5 | 0.00 | 0.00 | 0.00 | 60 | 1015.3 |
| 20260506152517 | 27 | 240 | 8.0 | 16.1 | 0.00 | 0.00 | 0.00 | 58 | 1015.2 |
| 20260506152018 | 27 | 243 | 8.0 | 19.3 | 0.00 | 0.00 | 0.00 | 59 | 1015.3 |
| 20260506151516 | 27 | 259 | 8.0 | 19.3 | 0.00 | 0.00 | 0.00 | 59 | 1015.2 |
| 20260506151018 | 27 | 206 | 8.0 | 20.9 | 0.00 | 0.00 | 0.00 | 60 | 1015.1 |
| 20260506150514 | 27 | 241 | 9.7 | 20.9 | 0.00 | 0.00 | 0.00 | 60 | 1015.0 |
| 20260506150012 | 27 | 267 | 9.7 | 17.7 | 0.00 | 0.00 | 0.00 | 61 | 1015.0 |
| 20260506145511 | 26 | 244 | 4.8 | 22.5 | 0.00 | 0.00 | 0.00 | 63 | 1015.0 |
| 20260506145011 | 26 | 242 | 14.5 | 22.5 | 0.00 | 0.00 | 0.00 | 62 | 1015.1 |
| 20260506144510 | 26 | 230 | 6.4 | 19.3 | 0.00 | 0.00 | 0.00 | 63 | 1015.0 |
| 20260506144009 | 26 | 259 | 4.8 | 16.1 | 0.00 | 0.00 | 0.00 | 64 | 1015.0 |
| 20260506143509 | 25 | 212 | 9.7 | 16.1 | 0.00 | 0.00 | 0.00 | 64 | 1015.1 |
| 20260506143042 | 26 | 226 | 6.4 | 17.7 | 0.00 | 0.00 | 0.00 | 64 | 1015.1 |
| 20260506142511 | 26 | 228 | 4.8 | 22.5 | 0.00 | 0.00 | 0.00 | 65 | 1015.2 |
| 20260506142107 | 25 | 248 | 9.7 | 22.5 | 0.00 | 0.00 | 0.00 | 65 | 1015.2 |
| 20260506141505 | 25 | 264 | 8.0 | 16.1 | 0.00 | 0.00 | 0.00 | 65 | 1015.0 |
| 20260506141009 | 25 | 221 | 6.4 | 17.7 | 0.00 | 0.00 | 0.00 | 65 | 1015.0 |
| 20260506140504 | 25 | 258 | 9.7 | 22.5 | 0.00 | 0.00 | 0.00 | 67 | 1014.9 |
| 20260506140002 | 24 | 251 | 12.9 | 24.1 | 0.00 | 0.00 | 0.00 | 68 | 1015.0 |
| 20260506135600 | 24 | 251 | 14.5 | 24.1 | 0.00 | 0.00 | 0.00 | 68 | 1015.0 |
| 20260506135059 | 24 | 259 | 8.0 | 24.1 | 0.00 | 0.00 | 0.00 | 69 | 1014.9 |
| 20260506134558 | 23 | 232 | 11.3 | 25.7 | 0.00 | 0.00 | 0.00 | 70 | 1014.9 |
| 20260506134057 | 23 | 249 | 11.3 | 25.7 | 0.00 | 0.00 | 0.00 | 71 | 1014.8 |
| 20260506133556 | 23 | 251 | 12.9 | 24.1 | 0.00 | 0.00 | 0.00 | 71 | 1014.9 |
| 20260506133055 | 23 | 225 | 6.4 | 14.5 | 0.00 | 0.00 | 0.00 | 71 | 1014.8 |
| 20260506132553 | 23 | 262 | 4.8 | 20.9 | 0.00 | 0.00 | 0.00 | 72 | 1014.8 |
| 20260506132052 | 22 | 250 | 8.0 | 17.7 | 0.00 | 0.00 | 0.00 | 73 | 1015.0 |
| 20260506131600 | 22 | 227 | 9.7 | 17.7 | 0.00 | 0.00 | 0.00 | 72 | 1015.0 |
| 20260506131051 | 22 | 252 | 3.2 | 19.3 | 0.00 | 0.00 | 0.00 | 73 | 1015.1 |
| 20260506130550 | 21 | 268 | 9.7 | 19.3 | 0.00 | 0.00 | 0.00 | 74 | 1015.0 |
| 20260506130100 | 21 | 263 | 6.4 | 14.5 | 0.00 | 0.00 | 0.00 | 75 | 1015.0 |
| 20260506125545 | 21 | 234 | 3.2 | 14.5 | 0.00 | 0.00 | 0.00 | 77 | 1014.9 |
| 20260506125045 | 20 | 267 | 6.4 | 14.5 | 0.00 | 0.00 | 0.00 | 76 | 1014.9 |
| 20260506124552 | 20 | 243 | 4.8 | 8.0 | 0.00 | 0.00 | 0.00 | 77 | 1014.9 |
| 20260506124042 | 20 | 269 | 3.2 | 8.0 | 0.00 | 0.00 | 0.00 | 78 | 1014.8 |
| 20260506123541 | 20 | 244 | 1.6 | 6.4 | 0.00 | 0.00 | 0.00 | 78 | 1014.8 |
| 20260506123042 | 19 | 255 | 3.2 | 8.0 | 0.00 | 0.00 | 0.00 | 79 | 1014.8 |
| 20260506122542 | 18 | 232 | 3.2 | 8.0 | 0.00 | 0.00 | 0.00 | 80 | 1014.8 |
| 20260506122038 | 18 | 245 | 3.2 | 8.0 | 0.00 | 0.00 | 0.00 | 81 | 1014.7 |
| 20260506121535 | 18 | 244 | 1.6 | 6.4 | 0.00 | 0.00 | 0.00 | 82 | 1014.7 |
| 20260506121034 | 17 | 189 | 1.6 | 6.4 | 0.00 | 0.00 | 0.00 | 83 | 1014.6 |
| 20260506120534 | 17 | 283 | 0.0 | 3.2 | 0.00 | 0.00 | 0.00 | 83 | 1014.6 |
| 20260506120035 | 17 | 301 | 0.0 | 4.8 | 0.00 | 0.00 | 0.00 | 84 | 1014.5 |
| 20260506115530 | 17 | 253 | 1.6 | 4.8 | 0.00 | 0.00 | 0.00 | 84 | 1014.5 |
| 20260506115031 | 17 | 271 | 0.0 | 3.2 | 0.00 | 0.00 | 0.00 | 85 | 1014.3 |
| 20260506114534 | 16 | 272 | 0.0 | 4.8 | 0.00 | 0.00 | 0.00 | 86 | 1014.3 |
| 20260506114030 | 16 | 227 | 1.6 | 4.8 | 0.00 | 0.00 | 0.00 | 86 | 1014.3 |
| 20260506113530 | 16 | 63 | 0.0 | 3.2 | 0.00 | 0.00 | 0.00 | 86 | 1014.2 |
| 20260506113030 | 16 | 231 | 0.0 | 3.2 | 0.00 | 0.00 | 0.00 | 86 | 1014.1 |
| 20260506112529 | 16 | 248 | 0.0 | 3.2 | 0.00 | 0.00 | 0.00 | 86 | 1014.2 |
| 20260506112028 | 15 | 283 | 0.0 | 3.2 | 0.00 | 0.00 | 0.00 | 87 | 1014.2 |
| 20260506111528 | 15 | 213 | 0.0 | 3.2 | 0.00 | 0.00 | 0.00 | 87 | 1014.1 |
| 20260506111029 | 15 | 287 | 0.0 | 3.2 | 0.00 | 0.00 | 0.00 | 87 | 1014.2 |
| 20260506110530 | 15 | 287 | 0.0 | 4.8 | 0.00 | 0.00 | 0.00 | 87 | 1014.2 |
| 20260506110027 | 15 | 244 | 1.6 | 4.8 | 0.00 | 0.00 | 0.00 | 87 | 1014.2 |
| 20260506105524 | 15 | 285 | 1.6 | 4.8 | 0.00 | 0.00 | 0.00 | 87 | 1014.1 |
| 20260506105026 | 15 | 344 | 0.0 | 3.2 | 0.00 | 0.00 | 0.00 | 87 | 1013.9 |
| 20260506104522 | 15 | 284 | 1.6 | 3.2 | 0.00 | 0.00 | 0.00 | 87 | 1013.8 |
| 20260506104022 | 15 | 55 | 0.0 | 1.6 | 0.00 | 0.00 | 0.00 | 86 | 1013.6 |
| 20260506103522 | 15 | 55 | 0.0 | 1.6 | 0.00 | 0.00 | 0.00 | 86 | 1013.5 |
| 20260506103022 | 15 | 57 | 0.0 | 1.6 | 0.00 | 0.00 | 0.00 | 86 | 1013.6 |
| 20260506102522 | 15 | 248 | 0.0 | 1.6 | 0.00 | 0.00 | 0.00 | 86 | 1013.7 |
| 20260506102022 | 15 | 248 | 0.0 | 1.6 | 0.00 | 0.00 | 0.00 | 86 | 1013.7 |
| 20260506101538 | 15 | 248 | 0.0 | 1.6 | 0.00 | 0.00 | 0.00 | 86 | 1013.7 |
| 20260506101021 | 15 | 248 | 0.0 | 1.6 | 0.00 | 0.00 | 0.00 | 86 | 1013.7 |
| 20260506100521 | 15 | 248 | 0.0 | 1.6 | 0.00 | 0.00 | 0.00 | 86 | 1013.8 |
| 20260506100021 | 15 | 248 | 0.0 | 1.6 | 0.00 | 0.00 | 0.00 | 86 | 1013.7 |
| 20260506095520 | 15 | 248 | 0.0 | 3.2 | 0.00 | 0.00 | 0.00 | 86 | 1013.7 |
| 20260506095026 | 15 | 248 | 0.0 | 3.2 | 0.00 | 0.00 | 0.00 | 86 | 1013.8 |
| 20260506094524 | 14 | 243 | 0.0 | 1.6 | 0.00 | 0.00 | 0.00 | 86 | 1013.8 |
| 20260506094024 | 14 | 243 | 0.0 | 3.2 | 0.00 | 0.00 | 0.00 | 86 | 1013.8 |
| 20260506093519 | 14 | 243 | 0.0 | 3.2 | 0.00 | 0.00 | 0.00 | 86 | 1013.8 |
| 20260506093022 | 14 | 242 | 0.0 | 4.8 | 0.00 | 0.00 | 0.00 | 86 | 1013.7 |
| 20260506092519 | 14 | 243 | 0.0 | 4.8 | 0.00 | 0.00 | 0.00 | 86 | 1013.7 |
| 20260506092021 | 15 | 234 | 0.0 | 3.2 | 0.00 | 0.00 | 0.00 | 86 | 1013.9 |
| 20260506091519 | 15 | 234 | 0.0 | 3.2 | 0.00 | 0.00 | 0.00 | 85 | 1013.8 |
| 20260506091019 | 15 | 229 | 0.0 | 1.6 | 0.00 | 0.00 | 0.00 | 85 | 1013.7 |
| 20260506090517 | 15 | 229 | 0.0 | 0.0 | 0.00 | 0.00 | 0.00 | 86 | 1013.6 |
| 20260506090017 | 15 | 229 | 0.0 | 1.6 | 0.00 | 0.00 | 0.00 | 86 | 1013.7 |
| 20260506085517 | 15 | 229 | 0.0 | 1.6 | 0.00 | 0.00 | 0.00 | 86 | 1013.6 |
| 20260506085017 | 15 | 229 | 0.0 | 0.0 | 0.00 | 0.00 | 0.00 | 85 | 1013.6 |
| 20260506084517 | 15 | 229 | 0.0 | 0.0 | 0.00 | 0.00 | 0.00 | 86 | 1013.5 |
| 20260506084017 | 15 | 229 | 0.0 | 1.6 | 0.00 | 0.00 | 0.00 | 86 | 1013.5 |
| 20260506083517 | 15 | 229 | 0.0 | 1.6 | 0.00 | 0.00 | 0.00 | 85 | 1013.6 |
| 20260506083017 | 15 | 229 | 0.0 | 1.6 | 0.00 | 0.00 | 0.00 | 85 | 1013.5 |
| 20260506082519 | 15 | 229 | 0.0 | 1.6 | 0.00 | 0.00 | 0.00 | 85 | 1013.7 |
| 20260506082017 | 15 | 229 | 0.0 | 3.2 | 0.00 | 0.00 | 0.00 | 85 | 1013.9 |
| 20260506081515 | 15 | 229 | 0.0 | 3.2 | 0.00 | 0.00 | 0.00 | 85 | 1013.9 |
| 20260506081017 | 15 | 229 | 0.0 | 3.2 | 0.00 | 0.00 | 0.00 | 85 | 1013.7 |
| 20260506080516 | 15 | 229 | 0.0 | 1.6 | 0.00 | 0.00 | 0.00 | 85 | 1013.8 |
| 20260506073513 | 15 | 229 | 0.0 | 1.6 | 0.00 | 0.00 | 0.00 | 84 | 1013.6 |
| 20260506073027 | 15 | 230 | 0.0 | 3.2 | 0.00 | 0.00 | 0.00 | 84 | 1013.8 |
| 20260506072512 | 15 | 230 | 0.0 | 3.2 | 0.00 | 0.00 | 0.00 | 84 | 1013.5 |
| 20260506072012 | 15 | 179 | 0.0 | 1.6 | 0.00 | 0.00 | 0.00 | 84 | 1013.3 |
| 20260506071511 | 15 | 179 | 0.0 | 0.0 | 0.00 | 0.00 | 0.00 | 83 | 1013.4 |
| 20260506071017 | 15 | 179 | 0.0 | 0.0 | 0.00 | 0.00 | 0.00 | 83 | 1013.4 |
| 20260506070511 | 15 | 179 | 0.0 | 0.0 | 0.00 | 0.00 | 0.00 | 83 | 1013.3 |
| 20260506062505 | 15 | 179 | 0.0 | 0.0 | 0.00 | 0.00 | 0.00 | 82 | 1013.9 |
| 20260506062005 | 16 | 179 | 0.0 | 0.0 | 0.00 | 0.00 | 0.00 | 82 | 1014.0 |
| 20260506061504 | 16 | 179 | 0.0 | 0.0 | 0.00 | 0.00 | 0.00 | 82 | 1014.0 |
| 20260506061002 | 16 | 179 | 0.0 | 1.6 | 0.00 | 0.00 | 0.00 | 82 | 1014.0 |
| 20260506060502 | 16 | 179 | 0.0 | 1.6 | 0.00 | 0.00 | 0.00 | 82 | 1014.1 |
| 20260506051054 | 16 | 179 | 0.0 | 0.0 | 0.00 | 0.00 | 0.00 | 79 | 1014.6 |
| 20260506050554 | 16 | 179 | 0.0 | 0.0 | 0.00 | 0.00 | 0.00 | 79 | 1014.6 |
| 20260506045047 | 16 | 179 | 0.0 | 0.0 | 0.00 | 0.00 | 0.00 | 79 | 1014.6 |
| 20260506044645 | 16 | 179 | 0.0 | 0.0 | 0.00 | 0.00 | 0.00 | 79 | 1014.6 |
| 20260506044046 | 17 | 179 | 0.0 | 0.0 | 0.00 | 0.00 | 0.00 | 79 | 1014.6 |
| 20260506043546 | 17 | 179 | 0.0 | 0.0 | 0.00 | 0.00 | 0.00 | 78 | 1014.7 |
| 20260506043046 | 17 | 179 | 0.0 | 0.0 | 0.00 | 0.00 | 0.00 | 78 | 1014.7 |
| 20260506042545 | 17 | 179 | 0.0 | 0.0 | 0.00 | 0.00 | 0.00 | 77 | 1014.7 |
| 20260506042044 | 17 | 179 | 0.0 | 0.0 | 0.00 | 0.00 | 0.00 | 77 | 1014.7 |
| 20260506041556 | 17 | 179 | 0.0 | 0.0 | 0.00 | 0.00 | 0.00 | 77 | 1014.6 |
| 20260506041042 | 17 | 179 | 0.0 | 0.0 | 0.00 | 0.00 | 0.00 | 77 | 1014.7 |
| 20260506040545 | 17 | 179 | 0.0 | 0.0 | 0.00 | 0.00 | 0.00 | 77 | 1014.7 |
| 20260506040041 | 17 | 179 | 0.0 | 0.0 | 0.00 | 0.00 | 0.00 | 76 | 1014.7 |
| 20260506035540 | 17 | 179 | 0.0 | 0.0 | 0.00 | 0.00 | 0.00 | 76 | 1014.7 |
| 20260506035040 | 17 | 179 | 0.0 | 0.0 | 0.00 | 0.00 | 0.00 | 76 | 1014.7 |
| 20260506034614 | 18 | 179 | 0.0 | 1.6 | 0.00 | 0.00 | 0.00 | 76 | 1014.7 |
| 20260506034040 | 18 | 179 | 0.0 | 1.6 | 0.00 | 0.00 | 0.00 | 76 | 1014.7 |
| 20260506033539 | 18 | 176 | 0.0 | 1.6 | 0.00 | 0.00 | 0.00 | 75 | 1014.7 |
| 20260506033039 | 18 | 176 | 0.0 | 1.6 | 0.00 | 0.00 | 0.00 | 75 | 1014.8 |
| 20260506032539 | 18 | 177 | 0.0 | 1.6 | 0.00 | 0.00 | 0.00 | 74 | 1014.9 |
| 20260506032039 | 18 | 177 | 0.0 | 0.0 | 0.00 | 0.00 | 0.00 | 73 | 1014.8 |
| 20260506031542 | 18 | 177 | 0.0 | 0.0 | 0.00 | 0.00 | 0.00 | 73 | 1014.7 |
| 20260506031039 | 18 | 177 | 0.0 | 0.0 | 0.00 | 0.00 | 0.00 | 73 | 1014.8 |
| 20260506030538 | 19 | 177 | 0.0 | 0.0 | 0.00 | 0.00 | 0.00 | 74 | 1014.8 |
| 20260506030039 | 19 | 177 | 0.0 | 1.6 | 0.00 | 0.00 | 0.00 | 73 | 1014.7 |
| 20260506025538 | 19 | 177 | 0.0 | 1.6 | 0.00 | 0.00 | 0.00 | 73 | 1014.7 |
| 20260506025039 | 19 | 177 | 0.0 | 0.0 | 0.00 | 0.00 | 0.00 | 73 | 1014.8 |
| 20260506024537 | 19 | 177 | 0.0 | 0.0 | 0.00 | 0.00 | 0.00 | 73 | 1014.7 |
| 20260506024037 | 19 | 175 | 0.0 | 1.6 | 0.00 | 0.00 | 0.00 | 73 | 1014.5 |
| 20260506023537 | 20 | 175 | 0.0 | 3.2 | 0.00 | 0.00 | 0.00 | 72 | 1014.5 |
| 20260506023054 | 20 | 163 | 0.0 | 1.6 | 0.00 | 0.00 | 0.00 | 72 | 1014.5 |
| 20260506022536 | 20 | 167 | 0.0 | 3.2 | 0.00 | 0.00 | 0.00 | 72 | 1014.5 |
| 20260506022035 | 20 | 146 | 0.0 | 3.2 | 0.00 | 0.00 | 0.00 | 72 | 1014.4 |
| 20260506021536 | 20 | 120 | 0.0 | 3.2 | 0.00 | 0.00 | 0.00 | 72 | 1014.3 |
| 20260506021036 | 20 | 128 | 0.0 | 4.8 | 0.00 | 0.00 | 0.00 | 72 | 1014.3 |
| 20260506020537 | 20 | 148 | 0.0 | 6.4 | 0.00 | 0.00 | 0.00 | 72 | 1014.3 |
| 20260506020036 | 20 | 192 | 0.0 | 4.8 | 0.00 | 0.00 | 0.00 | 71 | 1014.3 |
| 20260506015535 | 20 | 135 | 0.0 | 4.8 | 0.00 | 0.00 | 0.00 | 71 | 1014.1 |
| 20260506015036 | 20 | 167 | 1.6 | 8.0 | 0.00 | 0.00 | 0.00 | 71 | 1014.0 |
| 20260506014535 | 20 | 128 | 0.0 | 8.0 | 0.00 | 0.00 | 0.00 | 71 | 1013.9 |
| 20260506014036 | 20 | 137 | 1.6 | 6.4 | 0.00 | 0.00 | 0.00 | 70 | 1013.9 |
| 20260506013534 | 20 | 140 | 1.6 | 11.3 | 0.00 | 0.00 | 0.00 | 70 | 1013.7 |
| 20260506013038 | 20 | 173 | 1.6 | 11.3 | 0.00 | 0.00 | 0.00 | 69 | 1013.7 |
| 20260506012534 | 21 | 146 | 0.0 | 4.8 | 0.00 | 0.00 | 0.00 | 69 | 1013.7 |
| 20260506012037 | 21 | 134 | 0.0 | 4.8 | 0.00 | 0.00 | 0.00 | 69 | 1013.7 |
| 20260506011533 | 21 | 153 | 0.0 | 4.8 | 0.00 | 0.00 | 0.00 | 68 | 1013.5 |
| 20260506011033 | 21 | 159 | 1.6 | 4.8 | 0.00 | 0.00 | 0.00 | 67 | 1013.5 |
| 20260506010532 | 21 | 148 | 1.6 | 4.8 | 0.00 | 0.00 | 0.00 | 67 | 1013.6 |
| 20260506010502 | 21 | 139 | 0.0 | 4.8 | 0.00 | 0.00 | 0.00 | 67 | 1013.6 |
| 20260506010035 | 21 | 148 | 1.6 | 8.0 | 0.00 | 0.00 | 0.00 | 66 | 1013.7 |
| 20260506005532 | 21 | 163 | 1.6 | 8.0 | 0.00 | 0.00 | 0.00 | 65 | 1013.6 |
| 20260506005032 | 21 | 142 | 0.0 | 3.2 | 0.00 | 0.00 | 0.00 | 65 | 1013.6 |
| 20260506004551 | 21 | 132 | 1.6 | 9.7 | 0.00 | 0.00 | 0.00 | 64 | 1013.6 |
| 20260506004031 | 22 | 126 | 1.6 | 9.7 | 0.00 | 0.00 | 0.00 | 64 | 1013.5 |
| 20260506003534 | 22 | 175 | 0.0 | 4.8 | 0.00 | 0.00 | 0.00 | 63 | 1013.4 |
| 20260506003041 | 22 | 172 | 1.6 | 8.0 | 0.00 | 0.00 | 0.00 | 62 | 1013.4 |
| 20260506002530 | 22 | 178 | 1.6 | 8.0 | 0.00 | 0.00 | 0.00 | 61 | 1013.3 |
| 20260506002030 | 22 | 155 | 0.0 | 4.8 | 0.00 | 0.00 | 0.00 | 60 | 1013.4 |
| 20260506001530 | 22 | 188 | 1.6 | 8.0 | 0.00 | 0.00 | 0.00 | 60 | 1013.4 |
| 20260506001030 | 22 | 137 | 0.0 | 4.8 | 0.00 | 0.00 | 0.00 | 59 | 1013.2 |
| 20260506000530 | 23 | 144 | 1.6 | 6.4 | 0.00 | 0.00 | 0.00 | 58 | 1013.2 |
| 20260506000031 | 23 | 153 | 0.0 | 11.3 | 0.00 | 0.00 | 0.00 | 58 | 1013.2 |
| 20260505235530 | 23 | 137 | 1.6 | 11.3 | 0.00 | 0.00 | 0.00 | 57 | 1013.1 |
| 20260505235030 | 23 | 186 | 3.2 | 8.0 | 0.00 | 0.00 | 0.00 | 57 | 1013.1 |
| 20260505234546 | 23 | 76 | 1.6 | 8.0 | 0.00 | 0.00 | 0.00 | 57 | 1013.2 |
| 20260505234031 | 23 | 185 | 3.2 | 12.9 | 0.00 | 0.00 | 0.00 | 56 | 1013.3 |
| 20260505233532 | 23 | 134 | 1.6 | 12.9 | 0.00 | 0.00 | 0.00 | 56 | 1013.2 |
| 20260505233028 | 23 | 155 | 1.6 | 8.0 | 0.00 | 0.00 | 0.00 | 56 | 1013.2 |
| 20260505232529 | 23 | 126 | 1.6 | 9.7 | 0.00 | 0.00 | 0.00 | 56 | 1013.1 |
| 20260505232032 | 24 | 157 | 3.2 | 8.0 | 0.00 | 0.00 | 0.00 | 56 | 1013.1 |
| 20260505231530 | 24 | 109 | 1.6 | 8.0 | 0.00 | 0.00 | 0.00 | 56 | 1013.1 |
| 20260505231028 | 24 | 170 | 1.6 | 12.9 | 0.00 | 0.00 | 0.00 | 55 | 1013.1 |
| 20260505230528 | 24 | 124 | 1.6 | 17.7 | 0.00 | 0.00 | 0.00 | 55 | 1013.1 |
| 20260505230038 | 24 | 136 | 4.8 | 14.5 | 0.00 | 0.00 | 0.00 | 55 | 1013.1 |
| 20260505225529 | 24 | 108 | 1.6 | 14.5 | 0.00 | 0.00 | 0.00 | 55 | 1012.9 |
| 20260505225028 | 24 | 225 | 1.6 | 8.0 | 0.00 | 0.00 | 0.00 | 55 | 1013.0 |
| 20260505224528 | 25 | 196 | 1.6 | 14.5 | 0.00 | 0.00 | 0.00 | 54 | 1013.0 |
| 20260505224027 | 25 | 156 | 3.2 | 14.5 | 0.00 | 0.00 | 0.00 | 53 | 1012.9 |
| 20260505223527 | 25 | 173 | 3.2 | 12.9 | 0.00 | 0.00 | 0.00 | 53 | 1012.8 |
| 20260505223027 | 25 | 96 | 3.2 | 9.7 | 0.00 | 0.00 | 0.00 | 53 | 1012.9 |
| 20260505222527 | 25 | 32 | 3.2 | 14.5 | 0.00 | 0.00 | 0.00 | 52 | 1012.7 |
| 20260505222027 | 25 | 94 | 3.2 | 11.3 | 0.00 | 0.00 | 0.00 | 52 | 1012.8 |
| 20260505221528 | 25 | 81 | 4.8 | 14.5 | 0.00 | 0.00 | 0.00 | 51 | 1012.7 |
| 20260505221025 | 25 | 152 | 3.2 | 16.1 | 0.00 | 0.00 | 0.00 | 50 | 1012.7 |
| 20260505220526 | 25 | 109 | 4.8 | 17.7 | 0.00 | 0.00 | 0.00 | 49 | 1012.7 |
| 20260505220038 | 26 | 109 | 4.8 | 16.1 | 0.00 | 0.00 | 0.00 | 49 | 1012.7 |
| 20260505215525 | 26 | 113 | 4.8 | 16.1 | 0.00 | 0.00 | 0.00 | 49 | 1012.7 |
| 20260505215025 | 26 | 132 | 6.4 | 14.5 | 0.00 | 0.00 | 0.00 | 48 | 1012.8 |
| 20260505214531 | 26 | 54 | 3.2 | 24.1 | 0.00 | 0.00 | 0.00 | 50 | 1012.8 |
| 20260505214023 | 26 | 36 | 3.2 | 24.1 | 0.00 | 0.00 | 0.00 | 49 | 1012.8 |
| 20260505213524 | 26 | 96 | 3.2 | 14.5 | 0.00 | 0.00 | 0.00 | 49 | 1012.9 |
| 20260505213026 | 26 | 84 | 3.2 | 17.7 | 0.00 | 0.00 | 0.00 | 50 | 1012.9 |
| 20260505212523 | 26 | 158 | 3.2 | 17.7 | 0.00 | 0.00 | 0.00 | 50 | 1012.9 |
| 20260505212024 | 26 | 166 | 6.4 | 16.1 | 0.00 | 0.00 | 0.00 | 49 | 1012.8 |
| 20260505211524 | 26 | 157 | 4.8 | 11.3 | 0.00 | 0.00 | 0.00 | 50 | 1012.8 |
| 20260505211023 | 26 | 11 | 3.2 | 12.9 | 0.00 | 0.00 | 0.00 | 50 | 1012.9 |
| 20260505210524 | 27 | 60 | 3.2 | 12.9 | 0.00 | 0.00 | 0.00 | 49 | 1012.9 |
| 20260505210023 | 26 | 34 | 4.8 | 20.9 | 0.00 | 0.00 | 0.00 | 49 | 1012.8 |
| 20260505205525 | 27 | 84 | 8.0 | 22.5 | 0.00 | 0.00 | 0.00 | 49 | 1012.8 |
| 20260505205022 | 27 | 123 | 4.8 | 14.5 | 0.00 | 0.00 | 0.00 | 50 | 1012.9 |
| 20260505204520 | 27 | 93 | 4.8 | 12.9 | 0.00 | 0.00 | 0.00 | 50 | 1012.8 |
| 20260505204020 | 26 | 129 | 3.2 | 11.3 | 0.00 | 0.00 | 0.00 | 51 | 1012.9 |
| 20260505203520 | 26 | 117 | 3.2 | 12.9 | 0.00 | 0.00 | 0.00 | 51 | 1012.9 |
| 20260505203021 | 26 | 113 | 4.8 | 14.5 | 0.00 | 0.00 | 0.00 | 51 | 1012.9 |
| 20260505202521 | 26 | 54 | 3.2 | 14.5 | 0.00 | 0.00 | 0.00 | 50 | 1013.0 |
| 20260505202018 | 27 | 98 | 1.6 | 12.9 | 0.00 | 0.00 | 0.00 | 49 | 1013.1 |
| 20260505201523 | 27 | 62 | 6.4 | 14.5 | 0.00 | 0.00 | 0.00 | 47 | 1013.1 |